Location: Bakhuizen
(52.8696°N, 5.4575°E)
Time: 08:54:56
(UTC+00:00)

Cosmos 2297 - Pass Details

Date: 11 May 2021
Orbit: 837 x 857 km, 71.0° (Epoch: 15 June)

Event Time Altitude Azimuth Distance (km) Brightness Sun altitude
Exits shadow 23:04:23 17° 224° (SW) 2,018 5.3 -18.7°
Maximum altitude 23:08:48 68° 305° (NW) 913 4.0 -18.8°
Drops below altitude 10° 23:14:29 10° 29° (NNE) 2,476 6.9 -18.9°
Sets 23:16:57 0° 32° (NNE) 3,411 7.7 -18.9°
